Volver al catálogo

STARLINK-2521

ActivoComunicacionesVLEO
NORAD 48648·PAYLOAD·🇺🇸 United States

Lanzado May 26, 2021 desde Cape Canaveral Space Force Station

Loading…

Próximos Pases (próximas 24 horas)

TLE

ActualizadoSource: CelesTrak SupGP

Época: Sep 14, 2026, 20:34 UTC

1 48648C 21044L   26257.85743056 -.00023058  00000+0 -74134-3 0  2579
2 48648  53.1576 313.6531 0001111  93.8190 334.8122 15.31720075    10

Sigue STARLINK-2521 en tiempo real con AllMySat

Download on the App Store